GW6639 Weather Reports


time (UTC)temp
C
wind
direction
speed
KPH
gust
KPH
rain 1hr
cm
rain 24hr
cm
rain mn
cm
humidity
%
barometer
mb
20260906211512 28 269 4.8 8.0 0.00 0.00 0.00 34 1022.9
20260906211017 27 172 6.4 12.9 0.00 0.00 0.00 35 1023.3
20260906210524 27 9 6.4 16.1 0.00 0.00 0.00 36 1023.3
20260906210019 27 189 6.4 12.9 0.00 0.00 0.00 36 1023.3
20260906205522 27 281 3.2 14.5 0.00 0.00 0.00 36 1023.3
20260906205015 27 137 6.4 14.5 0.00 0.00 0.00 36 1023.3
20260906204520 27 153 6.4 16.1 0.00 0.00 0.00 36 1023.3
20260906204014 27 116 6.4 14.5 0.00 0.00 0.00 35 1023.3
20260906203508 28 197 6.4 17.7 0.00 0.00 0.00 35 1023.8
20260906203038 28 172 6.4 17.7 0.00 0.00 0.00 35 1023.8
20260906202521 28 317 3.2 6.4 0.00 0.00 0.00 35 1023.8
20260906202013 26 316 4.8 14.5 0.00 0.00 0.00 36 1023.8
20260906201519 28 164 9.7 19.3 0.00 0.00 0.00 36 1023.8
20260906201043 28 230 6.4 14.5 0.00 0.03 0.00 35 1023.8
20260906200507 28 125 3.2 9.7 0.00 0.03 0.00 34 1023.8
20260906200025 28 233 4.8 9.7 0.00 0.03 0.00 34 1023.8
20260906195519 28 268 6.4 12.9 0.00 0.03 0.00 34 1023.8
20260906195011 28 281 4.8 6.4 0.00 0.03 0.00 36 1023.8
20260906194515 28 243 4.8 14.5 0.00 0.03 0.00 35 1023.8
20260906194010 28 170 6.4 12.9 0.00 0.03 0.00 35 1023.8
20260906193527 27 235 4.8 12.9 0.00 0.03 0.00 37 1023.8
20260906193021 27 156 9.7 24.1 0.00 0.03 0.00 36 1023.8
20260906192513 28 245 8.0 17.7 0.00 0.03 0.00 34 1024.2
20260906192020 28 207 4.8 16.1 0.00 0.03 0.00 35 1024.2
20260906191513 28 336 4.8 11.3 0.00 0.03 0.00 34 1024.2
20260906191021 28 208 3.2 8.0 0.00 0.03 0.00 36 1024.2
20260906190522 28 155 6.4 16.1 0.00 0.03 0.00 37 1024.2
20260906190019 28 124 4.8 11.3 0.00 0.03 0.00 37 1024.2
20260906185511 28 198 6.4 12.9 0.00 0.03 0.00 37 1024.2
20260906185015 29 107 6.4 14.5 0.00 0.03 0.00 36 1024.2
20260906184510 27 73 1.6 4.8 0.00 0.03 0.00 38 1024.2
20260906184027 28 199 6.4 14.5 0.00 0.03 0.00 37 1024.7
20260906183521 28 234 4.8 11.3 0.00 0.03 0.00 37 1024.7
20260906183014 27 116 4.8 11.3 0.00 0.03 0.00 39 1024.7
20260906182509 27 205 6.4 14.5 0.00 0.03 0.00 38 1024.7
20260906182028 27 242 4.8 9.7 0.00 0.03 0.00 36 1024.7
20260906181507 28 274 3.2 6.4 0.00 0.03 0.00 37 1024.7
20260906181037 27 312 3.2 6.4 0.00 0.03 0.00 38 1025.1
20260906180507 28 92 4.8 9.7 0.00 0.03 0.00 38 1025.1
20260906180022 27 269 3.2 6.4 0.00 0.03 0.00 39 1025.1
20260906175519 27 308 4.8 12.9 0.00 0.03 0.00 39 1025.1
20260906175011 27 257 4.8 8.0 0.00 0.03 0.00 39 1025.1
20260906174527 28 128 4.8 11.3 0.00 0.03 0.00 39 1025.1
20260906174009 27 259 3.2 8.0 0.00 0.03 0.00 40 1025.1
20260906173540 28 316 3.2 4.8 0.00 0.03 0.00 39 1025.1
20260906173048 27 326 3.2 6.4 0.00 0.03 0.00 41 1025.5
20260906172525 27 296 3.2 6.4 0.00 0.03 0.00 41 1025.5
20260906172009 27 79 3.2 4.8 0.00 0.03 0.00 42 1025.5
20260906171526 27 324 3.2 6.4 0.00 0.03 0.00 43 1025.5
20260906171009 26 3 3.2 12.9 0.00 0.03 0.00 44 1025.5
20260906170513 26 281 3.2 9.7 0.00 0.03 0.00 44 1025.5
20260906170007 26 292 3.2 6.4 0.00 0.03 0.00 45 1025.5
20260906165538 25 286 3.2 4.8 0.00 0.03 0.00 47 1025.5
20260906165020 25 199 3.2 11.3 0.00 0.03 0.00 48 1025.5
20260906164512 25 272 3.2 6.4 0.00 0.03 0.00 49 1025.5
20260906164019 23 283 3.2 6.4 0.00 0.03 0.00 50 1025.5
20260906163523 23 264 3.2 9.7 0.00 0.03 0.00 51 1026.0
20260906163028 23 241 4.8 12.9 0.00 0.03 0.00 51 1026.0
20260906162511 23 280 3.2 6.4 0.00 0.03 0.00 52 1026.0
20260906162040 23 116 4.8 8.0 0.00 0.03 0.00 53 1026.0
20260906161510 23 262 3.2 6.4 0.00 0.03 0.00 54 1026.0
20260906161014 22 266 4.8 12.9 0.00 0.03 0.00 55 1026.0
20260906160508 23 250 4.8 11.3 0.00 0.03 0.00 55 1026.0
20260906160023 23 254 3.2 6.4 0.00 0.03 0.00 55 1026.0
20260906155520 22 245 4.8 12.9 0.00 0.03 0.00 57 1026.0
20260906155012 22 250 6.4 14.5 0.00 0.03 0.00 58 1026.0
20260906154532 21 208 6.4 16.1 0.00 0.03 0.00 59 1025.5
20260906154024 22 272 4.8 12.9 0.00 0.03 0.00 58 1025.5
20260906153518 21 119 4.8 8.0 0.00 0.03 0.00 59 1025.5
20260906153012 21 225 4.8 12.9 0.00 0.03 0.00 60 1025.5
20260906152516 21 227 8.0 14.5 0.00 0.03 0.00 60 1025.5
20260906152010 21 228 6.4 14.5 0.00 0.03 0.00 61 1025.5
20260906151514 20 225 4.8 9.7 0.00 0.03 0.00 62 1025.5
20260906151034 21 248 4.8 11.3 0.00 0.03 0.00 61 1025.5
20260906150033 20 209 6.4 16.1 0.00 0.03 0.00 62 1025.5
20260906145009 19 221 6.4 12.9 0.00 0.03 0.00 66 1025.5
20260906144515 19 246 6.4 19.3 0.00 0.03 0.00 67 1025.5
20260906144009 18 204 8.0 19.3 0.00 0.03 0.00 69 1025.5
20260906143513 18 199 9.7 20.9 0.00 0.03 0.00 69 1025.5
20260906143019 18 182 11.3 19.3 0.00 0.03 0.00 69 1025.5
20260906142525 18 200 9.7 17.7 0.00 0.03 0.00 69 1025.5
20260906142007 17 195 9.7 14.5 0.00 0.03 0.00 68 1025.5
20260906141526 17 188 9.7 17.7 0.00 0.03 0.00 67 1025.5
20260906141007 18 199 9.7 20.9 0.00 0.03 0.00 66 1025.5
20260906140523 17 193 8.0 17.7 0.00 0.03 0.00 67 1025.5
20260906140015 17 176 8.0 14.5 0.00 0.03 0.00 69 1025.5
20260906135523 17 186 8.0 14.5 0.00 0.03 0.00 70 1026.0
20260906135028 17 177 9.7 16.1 0.00 0.03 0.00 69 1026.0
20260906134512 17 183 8.0 12.9 0.00 0.03 0.00 70 1025.5
20260906133510 17 192 9.7 16.1 0.00 0.03 0.00 64 1025.5
20260906133014 17 208 9.7 19.3 0.00 0.03 0.00 62 1025.5
20260906132508 17 211 8.0 16.1 0.00 0.03 0.00 62 1025.5
20260906132025 16 219 8.0 16.1 0.00 0.03 0.00 64 1025.5
20260906131522 16 204 9.7 17.7 0.00 0.03 0.00 66 1025.5
20260906131014 16 230 8.0 16.1 0.00 0.03 0.00 65 1025.5
20260906130507 16 232 8.0 25.7 0.00 0.03 0.00 64 1025.5
20260906130048 16 215 8.0 20.9 0.00 0.03 0.00 64 1025.5
20260906125548 16 231 6.4 14.5 0.00 0.03 0.00 64 1025.5
20260906124547 16 245 4.8 9.7 0.00 0.03 0.00 65 1025.5
20260906123509 15 243 4.8 12.9 0.00 0.03 0.00 69 1025.5
20260906123012 15 258 4.8 12.9 0.00 0.03 0.00 73 1025.5
20260906122508 15 262 3.2 6.4 0.00 0.03 0.00 75 1025.5
20260906122036 15 264 4.8 8.0 0.00 0.03 0.00 74 1025.1
20260906121508 16 271 4.8 6.4 0.00 0.03 0.00 75 1025.1
20260906121015 16 271 4.8 9.7 0.00 0.03 0.00 74 1025.1
20260906120012 16 261 4.8 6.4 0.00 0.03 0.00 72 1025.5
20260906115506 16 256 4.8 6.4 0.00 0.03 0.00 71 1025.5
20260906115011 16 232 4.8 12.9 0.00 0.03 0.00 71 1025.5
20260906114515 16 229 4.8 11.3 0.00 0.03 0.00 72 1025.5
20260906114009 16 259 4.8 9.7 0.00 0.03 0.00 71 1025.5
20260906113514 16 226 6.4 11.3 0.00 0.03 0.00 71 1025.5
20260906113009 16 252 4.8 11.3 0.00 0.03 0.00 71 1025.5
20260906112514 16 239 6.4 14.5 0.00 0.03 0.00 71 1025.5
20260906112045 16 264 4.8 11.3 0.00 0.03 0.00 70 1025.5
20260906111537 16 250 6.4 16.1 0.00 0.03 0.00 70 1025.5
20260906111056 16 214 8.0 14.5 0.00 0.03 0.00 71 1025.5
20260906110033 15 217 6.4 11.3 0.00 0.03 0.00 73 1025.5
20260906105543 15 213 4.8 12.9 0.00 0.03 0.00 74 1025.5
20260906104540 15 188 6.4 9.7 0.00 0.03 0.00 75 1025.5
20260906104034 15 220 6.4 16.1 0.00 0.03 0.00 75 1025.5
20260906103554 16 237 4.8 12.9 0.00 0.03 0.00 75 1025.5
20260906103009 16 248 4.8 9.7 0.00 0.03 0.00 75 1025.5
20260906102539 16 230 4.8 11.3 0.00 0.03 0.00 76 1025.1
20260906102009 16 252 6.4 20.9 0.00 0.03 0.00 76 1025.1
20260906101513 15 258 6.4 12.9 0.00 0.03 0.00 77 1025.1
20260906101009 15 228 6.4 17.7 0.00 0.03 0.00 77 1025.5
20260906100541 16 200 8.0 14.5 0.00 0.03 0.00 77 1025.5
20260906095514 15 242 6.4 17.7 0.00 0.03 0.00 78 1025.1
20260906095034 15 241 6.4 12.9 0.00 0.03 0.00 78 1025.1
20260906094526 15 240 6.4 12.9 0.00 0.03 0.00 78 1025.1
20260906094008 15 252 6.4 16.1 0.00 0.03 0.00 78 1025.1
20260906093536 15 234 6.4 14.5 0.00 0.03 0.00 79 1025.1
20260906093044 15 235 6.4 14.5 0.00 0.03 0.00 79 1025.1
20260906092513 15 222 8.0 17.7 0.00 0.03 0.00 80 1025.1
20260906092031 15 200 9.7 25.7 0.00 0.03 0.00 80 1025.1
20260906091550 15 231 9.7 24.1 0.00 0.03 0.00 80 1025.1
20260906091009 15 208 11.3 29.0 0.00 0.03 0.00 80 1025.1
20260906090512 15 230 9.7 22.5 0.00 0.03 0.00 80 1025.1
20260906090007 15 243 8.0 17.7 0.00 0.03 0.00 80 1025.1
20260906085511 15 230 6.4 16.1 0.00 0.03 0.00 79 1025.1
20260906085015 15 232 8.0 17.7 0.00 0.03 0.00 79 1025.1
20260906084510 15 224 8.0 17.7 0.00 0.03 0.00 80 1025.1
20260906083510 15 225 11.3 29.0 0.00 0.03 0.00 79 1025.5
20260906083039 15 236 8.0 17.7 0.00 0.03 0.00 77 1025.5
20260906082514 16 352 9.7 24.1 0.00 0.03 0.00 76 1025.1
20260906081510 16 208 9.7 22.5 0.00 0.03 0.00 76 1025.5
20260906081016 16 234 8.0 32.2 0.00 0.03 0.00 75 1025.5
20260906080525 16 308 6.4 29.0 0.00 0.03 0.00 75 1025.5
20260906075028 17 258 4.8 11.3 0.00 0.03 0.00 70 1025.5
20260906074514 17 267 4.8 9.7 0.00 0.03 0.00 68 1025.5
20260906074059 17 227 6.4 16.1 0.00 0.03 0.00 68 1025.5
20260906072501 17 214 4.8 14.5 0.00 0.03 0.00 68 1025.5
20260906061535 17 171 8.0 19.3 0.00 0.03 0.00 69 1025.5
20260906061039 17 164 8.0 17.7 0.00 0.03 0.00 71 1025.5
20260906060508 17 163 8.0 12.9 0.00 0.03 0.00 73 1026.0
20260906060017 17 168 9.7 20.9 0.00 0.03 0.00 76 1026.0
20260906055557 17 151 8.0 16.1 0.00 0.03 0.03 77 1025.5
20260906055013 17 176 12.9 27.4 0.00 0.03 0.03 80 1026.0
20260906054508 17 162 11.3 20.9 0.00 0.03 0.03 81 1026.0
20260906054013 17 157 9.7 16.1 0.00 0.03 0.03 80 1026.0
20260906053508 17 162 9.7 17.7 0.00 0.03 0.03 80 1026.0
20260906053024 17 158 8.0 12.9 0.00 0.03 0.03 79 1026.0
20260906052520 17 146 6.4 16.1 0.00 0.03 0.03 78 1026.0
20260906052023 17 160 8.0 14.5 0.00 0.03 0.03 77 1026.4
20260906051543 17 156 8.0 14.5 0.00 0.03 0.03 77 1026.0
20260906051049 17 178 8.0 11.3 0.00 0.03 0.03 76 1026.4
20260906050543 17 149 11.3 20.9 0.00 0.03 0.03 76 1026.4
20260906050006 17 149 8.0 16.1 0.00 0.03 0.03 75 1026.4
20260906043512 18 152 6.4 11.3 0.00 0.03 0.03 72 1026.0
20260906042522 18 164 6.4 11.3 0.00 0.03 0.03 69 1026.0
20260906042016 18 154 6.4 14.5 0.00 0.03 0.03 67 1026.0
20260906041014 18 159 6.4 11.3 0.00 0.03 0.03 68 1026.0
20260906040509 18 151 4.8 9.7 0.00 0.03 0.03 69 1026.0
20260906040023 18 165 6.4 11.3 0.00 0.03 0.03 68 1026.4
20260906035510 18 157 6.4 11.3 0.00 0.03 0.03 67 1026.4
20260906034508 18 155 6.4 11.3 0.00 0.03 0.03 65 1026.4
20260906034012 18 154 4.8 9.7 0.00 0.03 0.03 65 1026.4
20260906033506 18 147 6.4 11.3 0.00 0.03 0.03 64 1026.4
20260906033010 18 141 4.8 8.0 0.00 0.03 0.03 63 1026.4
20260906032530 18 136 3.2 6.4 0.00 0.03 0.03 62 1026.9
20260906032010 18 147 4.8 8.0 0.00 0.03 0.03 61 1026.9
20260906031514 18 123 3.2 11.3 0.00 0.03 0.03 59 1026.9
20260906031015 18 159 3.2 8.0 0.00 0.03 0.03 57 1026.9
20260906030047 18 144 3.2 6.4 0.00 0.03 0.03 56 1026.9
20260906025511 18 140 4.8 8.0 0.00 0.03 0.03 56 1026.4
20260906022508 19 159 4.8 9.7 0.00 0.03 0.03 52 1026.0
20260906022050 19 120 3.2 4.8 0.00 0.03 0.03 52 1026.0
20260906021520 18 115 3.2 4.8 0.00 0.03 0.03 52 1026.0
20260906021012 18 130 3.2 4.8 0.00 0.03 0.03 52 1026.0
20260906020506 18 98 3.2 4.8 0.00 0.03 0.03 52 1026.0
20260906015025 19 100 1.6 3.2 0.00 0.03 0.03 51 1026.0
20260906013020 19 75 3.2 4.8 0.00 0.03 0.03 50 1026.0
20260906011053 20 85 1.6 3.2 0.00 0.03 0.03 49 1026.0
20260906010548 20 27 1.6 3.2 0.00 0.03 0.03 49 1026.0
20260906010031 20 57 1.6 4.8 0.00 0.03 0.03 48 1026.0
20260906005511 20 88 3.2 12.9 0.00 0.03 0.03 48 1026.0
20260906005041 21 101 4.8 12.9 0.00 0.03 0.03 47 1026.0
20260906004512 21 78 3.2 9.7 0.00 0.03 0.03 46 1026.0
20260906004040 21 102 6.4 12.9 0.00 0.03 0.03 44 1026.0
20260906003511 21 100 3.2 11.3 0.00 0.03 0.03 43 1026.0
20260906003021 21 90 3.2 6.4 0.00 0.03 0.03 44 1026.0
20260906001539 22 112 3.2 4.8 0.00 0.03 0.03 43 1026.0
20260906000056 22 75 3.2 12.9 0.00 0.03 0.03 43 1026.0
20260905235537 22 14 1.6 4.8 0.00 0.03 0.03 42 1026.0
20260905235033 22 28 1.6 4.8 0.00 0.03 0.03 42 1025.5
20260905234523 23 79 3.2 6.4 0.00 0.03 0.03 41 1025.5
20260905234019 23 40 1.6 6.4 0.00 0.03 0.03 40 1025.5
20260905233511 23 110 4.8 11.3 0.00 0.03 0.03 40 1025.5
20260905233016 24 138 4.8 9.7 0.00 0.03 0.03 39 1025.5
20260905232535 24 138 4.8 8.0 0.00 0.03 0.03 38 1025.5
20260905232008 24 127 4.8 11.3 0.00 0.03 0.03 38 1025.5
20260905231016 25 38 3.2 4.8 0.00 0.03 0.03 34 1025.5
20260905230535 24 260 3.2 9.7 0.00 0.03 0.03 35 1025.5
20260905230040 24 271 3.2 9.7 0.00 0.03 0.03 35 1025.5
20260905225547 24 193 4.8 12.9 0.00 0.03 0.03 36 1025.5
20260905225016 24 325 3.2 6.4 0.00 0.03 0.03 36 1025.5
20260905224510 24 45 3.2 6.4 0.00 0.03 0.03 36 1025.5
20260905224040 25 158 3.2 9.7 0.00 0.03 0.03 36 1025.5
20260905223509 25 195 3.2 8.0 0.00 0.03 0.03 35 1025.5
20260905223013 25 230 4.8 11.3 0.00 0.03 0.03 35 1025.5
20260905222508 25 102 3.2 11.3 0.00 0.03 0.03 34 1025.5
20260905222054 25 162 6.4 16.1 0.00 0.03 0.03 34 1025.5
20260905221015 25 320 1.6 6.4 0.00 0.03 0.03 34 1025.5
20260905220520 26 196 4.8 9.7 0.00 0.03 0.03 33 1025.5
20260905220026 25 169 4.8 11.3 0.00 0.03 0.03 34 1025.5
20260905215520 26 188 6.4 12.9 0.00 0.03 0.03 33 1025.5
20260905215013 26 144 3.2 6.4 0.00 0.03 0.03 34 1025.5
20260905214506 26 139 4.8 9.7 0.00 0.03 0.03 35 1025.5
20260905214048 25 299 1.6 6.4 0.00 0.03 0.03 36 1025.5
20260905213556 25 50 3.2 8.0 0.00 0.03 0.03 36 1025.5
20260905213037 24 190 4.8 9.7 0.00 0.03 0.03 36 1025.5
20260905212519 25 197 6.4 9.7 0.00 0.03 0.03 36 1025.5
20260905212011 25 184 4.8 11.3 0.00 0.03 0.03 36 1025.5